04.05.2024;22:00;23
04.05.2024;21:00;13
04.05.2024;20:00;10
04.05.2024;19:00;7
04.05.2024;18:00;6
04.05.2024;17:00;5
04.05.2024;16:00;6
04.05.2024;15:00;5
04.05.2024;14:00;5
04.05.2024;13:00;5
04.05.2024;12:00;6
04.05.2024;11:00;6
04.05.2024;10:00;13
04.05.2024;09:00;17
04.05.2024;08:00;17
04.05.2024;07:00;18
04.05.2024;06:00;19
04.05.2024;05:00;15
04.05.2024;04:00;15
04.05.2024;03:00;17
04.05.2024;02:00;25
04.05.2024;01:00;15
04.05.2024;00:00;14
03.05.2024;23:00;16
03.05.2024;22:00;13
03.05.2024;21:00;10
03.05.2024;20:00;15
03.05.2024;19:00;11
03.05.2024;18:00;14
03.05.2024;17:00;9
03.05.2024;16:00;9
03.05.2024;15:00;8
03.05.2024;14:00;7
03.05.2024;13:00;10
03.05.2024;12:00;7
03.05.2024;11:00;8
03.05.2024;10:00;8
03.05.2024;09:00;11
03.05.2024;08:00;13
03.05.2024;07:00;9
03.05.2024;06:00;6
03.05.2024;05:00;5
03.05.2024;04:00;5
03.05.2024;03:00;4
03.05.2024;02:00;5
03.05.2024;01:00;5
03.05.2024;00:00;5
02.05.2024;23:00;5
